BARATARIA BAY NEAR GRAND ISLE 13 LA US USGS current weather conditions

sailwx.info

Wind from 335 at 9 knots

Last reported at 2020-Sep-25 02:00 UTC.
Time now 2020-Sep-25 04:10 UTC

Location: N 29°25' W 089°57'.
View on Google Maps.

See reports from other nearby stations

  
Tides and Currents Weather Stations Pressure Air Temp Water Temp Dewpoint Dewpoint Depression Visibility Wind Speed Wind Dir Waves Ship Positions
date/time (UTC)wind fromknots sea level pressurealtimeterstation pressurevisibilityair tempwater tempwave heightnotes
2020-Sep-25 02:00 335 9
2020-Sep-25 01:00 335 8
2020-Sep-25 00:00 316 9
2020-Sep-24 23:00 246 9
2020-Sep-24 22:00 247 8
2020-Sep-24 21:00 262 10
2020-Sep-24 20:00 248 13
2020-Sep-24 19:00 248 13
2020-Sep-24 18:00 274 13
2020-Sep-24 17:00 251 10
2020-Sep-24 16:00 282 12
2020-Sep-24 15:00 284 14
2020-Sep-24 14:00 275 10
2020-Sep-24 13:00 262 10
2020-Sep-24 00:00 171 9
2020-Sep-23 23:00 137 11
2020-Sep-23 22:00 131 17
2020-Sep-23 21:00 136 18
2020-Sep-23 20:00 125 14
2020-Sep-23 19:00 122 16
2020-Sep-23 18:00 131 14
2020-Sep-23 17:00 125 14
2020-Sep-23 16:00 113 14